Location: Baix
(44.7118°N, 4.7648°E)
Time: 18:09:57
(UTC+00:00)

Cosmos 1634 Rocket - Pass Details

Date: 07 August 2020
Orbit: 959 x 992 km, 82.9° (Epoch: 23 September)

Event Time Altitude Azimuth Distance (km) Brightness Sun altitude
Exits shadow 01:50:25 44° 234° (SW) 1,331 4.2 -22.8°
Maximum altitude 01:52:03 56° 282° (WNW) 1,154 4.2 -22.6°
Drops below altitude 10° 01:58:12 10° 0° (N) 2,728 7.1 -22.0°
Sets 02:00:46 0° 5° (N) 3,675 8.0 -21.8°
